DELPHINI (44030 NORAD) Tracking and Keplerian Element Data

This shows tracking and keplerian element data for the satellite.

Feedback or suggestion? Click here.




ElementValue
Catalog44030
NameDELPHINI
Epoch Orbit352
Epoch Day53.89114083
Epoch Year2019
RAAN209.4255
Inclination51.6382
Eccentricity0.0004884
Argument of Perigee78.3881
Mean Anonmoly281.7657
Mean Motion15.54164398
Decay Rate0.00010417
L11 44030U 98067PW 19053.89114083 .00010417 00000-0 16415-3 0 9996
L22 44030 51.6382 209.4255 0004884 78.3881 281.7657 15.54164398 3526

Live tracking and technical data element details for DELPHINI (NORAD 44030). DELPHINI can be tracked NOW for your location showing map with azimuth and elevation plus other details from your city location.

Track the satellite on the map from your city or location and see movement details for azimuth, elevation, latitude, longitude, range, height, and movement on the map or in text.







IsCatalogInMostPopularTable: catalog: 44030, numindb: 10
Update: records affected: 1



GetName: 44030 DELPHINI

Hit Count: updated at: Sat, 23 Feb 2019 16:49:33 GMT